Phuket, Thailand

1:16 AM +07 on October 22, 2017 (GMT +0700)
Phuket International

Weather History for VTSP - May, 2013

Change the Weather History Date:

Wednesday, May 29, 2013

  Actual Average Record
Temperature  
Mean Temperature 81 °F -  
Max Temperature 89 °F 88 °F 95 °F (2002)
Min Temperature 73 °F 77 °F 71 °F (2014)
Cooling Degree Days 16    
Growing Degree Days 31 (Base 50)    
Moisture  
Dew Point 75 °F    
Average Humidity 80    
Maximum Humidity 97    
Minimum Humidity 62    
Precipitation  
Precipitation 0.00 in 0.38 in - ()
Sea Level Pressure  
Sea Level Pressure 29.83 in    
Wind  
Wind Speed 4 mph ()    
Max Wind Speed 13 mph    
Max Gust Speed -    
Visibility 5.8 miles    
Events      
Averages and records for this station are not official NWS values.
T = Trace of Precipitation, MM = Missing Value Source: Averaged Metar Reports

Daily Weather History Graph

Daily Weather History Graph

Search for Another Location

Airport or City:

Trip Planner

Search our weather history database for the weather conditions in past years. The results will help you decide how hot, cold, wet, or windy it might be!

Date:

Astronomy

May. 29, 2013 Rise Set
Actual Time 6:07 AM +07 6:40 PM +07
Civil Twilight 5:44 AM +07 7:03 PM +07
Nautical Twilight 5:18 AM +07 7:29 PM +07
Astronomical Twilight 4:51 AM +07 7:56 PM +07
Moon 10:52 PM +07 (5/29) 10:07 AM +07 (5/29)
Length of Visible Light 13h 18m
Length of Day
12h 33m
Waning Gibbous, 78% of the Moon is Illuminated
May 29
Waning Gibbous
Jun 1
Last Quarter
Jun 8
New
Jun 17
First Quarter
Jun 23
Full

Hourly Weather History & Observations

Time (+07) Temp. Heat Index Dew Point Humidity Pressure Visibility Wind Dir Wind Speed Gust Speed Precip Events Conditions
12:00 AM 77.0 °F - 73.4 °F 89% 29.86 in 5.6 mi Variable 2.3 mph - N/A   Mostly Cloudy
12:30 AM 77.0 °F - 71.6 °F 83% 29.86 in 5.6 mi West 4.6 mph - N/A   Mostly Cloudy
1:00 AM 76 °F - 75 °F 97% 29.82 in 6 mi Calm Calm - -   Scattered Clouds
1:00 AM 77.0 °F - 73.4 °F 89% 29.86 in 5.6 mi WNW 4.6 mph - N/A   Mostly Cloudy
1:30 AM 77.0 °F - 73.4 °F 89% 29.86 in 5.6 mi Variable 1.2 mph - N/A   Mostly Cloudy
2:00 AM 75.2 °F - 73.4 °F 94% 29.86 in 5.6 mi Calm Calm - N/A   Mostly Cloudy
2:30 AM 77.0 °F - 73.4 °F 89% 29.86 in 5.6 mi Calm Calm - N/A   Mostly Cloudy
3:00 AM 77.0 °F - 73.4 °F 89% 29.83 in 5.6 mi Calm Calm - N/A   Mostly Cloudy
3:30 AM 75.2 °F - 73.4 °F 94% 29.80 in 5.6 mi Calm Calm - N/A   Mostly Cloudy
4:00 AM 75.2 °F - 73.4 °F 94% 29.80 in 5.6 mi Calm Calm - N/A   Mostly Cloudy
4:30 AM 75.2 °F - 73.4 °F 94% 29.80 in 5.6 mi Calm Calm - N/A   Mostly Cloudy
5:00 AM 75.2 °F - 73.4 °F 94% 29.80 in 5.6 mi Calm Calm - N/A   Mostly Cloudy
5:30 AM 77.0 °F - 73.4 °F 89% 29.83 in 5.6 mi Calm Calm - N/A   Mostly Cloudy
6:00 AM 77.0 °F - 73.4 °F 89% 29.83 in 5.6 mi Variable 1.2 mph - N/A   Mostly Cloudy
6:30 AM 77.0 °F - 73.4 °F 89% 29.83 in 5.6 mi Calm Calm - N/A   Mostly Cloudy
7:00 AM 78 °F - 76 °F 91% 29.82 in 6 mi Calm Calm - -   Scattered Clouds
7:00 AM 77.0 °F - 75.2 °F 94% 29.86 in 5.6 mi Calm Calm - N/A   Mostly Cloudy
7:30 AM 78.8 °F - 75.2 °F 89% 29.86 in 5.6 mi Calm Calm - N/A   Mostly Cloudy
8:00 AM 80.6 °F 86.2 °F 75.2 °F 84% 29.86 in 5.6 mi Variable 1.2 mph - N/A   Mostly Cloudy
8:30 AM 82.4 °F 89.5 °F 75.2 °F 79% 29.86 in 6.2 mi Calm Calm - N/A   Mostly Cloudy
9:00 AM 82.4 °F 89.5 °F 75.2 °F 79% 29.86 in 6.2 mi Variable 2.3 mph - N/A   Mostly Cloudy
9:30 AM 84.2 °F 94.1 °F 77.0 °F 79% 29.86 in 6.2 mi Calm Calm - N/A   Mostly Cloudy
10:00 AM 87.8 °F 99.7 °F 77.0 °F 70% 29.86 in 6.2 mi Variable 2.3 mph - N/A   Mostly Cloudy
10:30 AM 86.0 °F 91.8 °F 71.6 °F 62% 29.86 in 6.2 mi SW 6.9 mph - N/A   Mostly Cloudy
11:00 AM - - - N/A% 29.86 in 6.2 mi West 6.9 mph - N/A   Mostly Cloudy
11:30 AM 86.0 °F 95.1 °F 75.2 °F 70% 29.86 in 6.2 mi West 8.1 mph - N/A   Mostly Cloudy
12:00 PM 86.0 °F 95.1 °F 75.2 °F 70% 29.86 in 6.2 mi West 9.2 mph - N/A   Mostly Cloudy
12:30 PM 86.0 °F 95.1 °F 75.2 °F 70% 29.83 in 6.2 mi WSW 6.9 mph - N/A   Mostly Cloudy
1:00 PM 87.8 °F 97.6 °F 75.2 °F 66% 29.83 in 6.2 mi WNW 6.9 mph - N/A   Mostly Cloudy
1:30 PM 87.8 °F 97.6 °F 75.2 °F 66% 29.83 in 6.2 mi West 9.2 mph - N/A   Mostly Cloudy
2:00 PM 87.8 °F 97.6 °F 75.2 °F 66% 29.83 in 6.2 mi West 4.6 mph - N/A   Mostly Cloudy
2:30 PM 87.8 °F 99.7 °F 77.0 °F 70% 29.80 in 6.2 mi WNW 9.2 mph - N/A   Scattered Clouds
3:00 PM 87.8 °F 97.6 °F 75.2 °F 66% 29.80 in 6.2 mi West 12.7 mph - N/A   Mostly Cloudy
3:30 PM 87.8 °F 97.6 °F 75.2 °F 66% 29.80 in 6.2 mi West 11.5 mph - N/A   Scattered Clouds
4:00 PM 87.8 °F 95.6 °F 73.4 °F 62% 29.80 in 6.2 mi West 9.2 mph - N/A   Scattered Clouds
4:30 PM 87.8 °F 97.6 °F 75.2 °F 66% 29.77 in 6.2 mi West 11.5 mph - N/A   Scattered Clouds
5:00 PM 86.0 °F 95.1 °F 75.2 °F 70% 29.77 in 6.2 mi WNW 12.7 mph - N/A   Scattered Clouds
5:30 PM 86.0 °F 95.1 °F 75.2 °F 70% 29.77 in 5.6 mi West 10.4 mph - N/A   Scattered Clouds
6:00 PM 84.2 °F 92.3 °F 75.2 °F 74% 29.80 in 5.6 mi West 11.5 mph - N/A   Scattered Clouds
6:30 PM 84.2 °F 92.3 °F 75.2 °F 74% 29.80 in 5.6 mi West 9.2 mph - N/A   Scattered Clouds
7:00 PM 86 °F - 77 °F 68% 29.76 in 6 mi West 8.1 mph - -   Scattered Clouds
7:00 PM 84.2 °F 92.3 °F 75.2 °F 74% 29.80 in 5.6 mi West 9.2 mph - N/A   Mostly Cloudy
7:30 PM 82.4 °F 89.5 °F 75.2 °F 79% 29.83 in 5.6 mi WNW 8.1 mph - N/A   Mostly Cloudy
8:00 PM 82.4 °F 89.5 °F 75.2 °F 79% 29.83 in 5.6 mi WSW 5.8 mph - N/A   Mostly Cloudy
8:30 PM 82.4 °F 89.5 °F 75.2 °F 79% 29.86 in 5.6 mi WNW 8.1 mph - N/A   Mostly Cloudy
9:00 PM 82.4 °F 89.5 °F 75.2 °F 79% 29.86 in 5.6 mi WNW 8.1 mph - N/A   Mostly Cloudy
9:30 PM 82.4 °F 90.9 °F 77.0 °F 84% 29.86 in 5.6 mi WNW 6.9 mph - N/A   Mostly Cloudy
10:00 PM 82.4 °F 90.9 °F 77.0 °F 84% 29.86 in 5.6 mi West 6.9 mph - N/A   Mostly Cloudy
10:30 PM 82.4 °F 89.5 °F 75.2 °F 79% 29.86 in 5.6 mi WSW 5.8 mph - N/A   Mostly Cloudy
11:00 PM 82.4 °F 89.5 °F 75.2 °F 79% 29.86 in 5.6 mi West 8.1 mph - N/A   Mostly Cloudy
11:30 PM 82.4 °F 89.5 °F 75.2 °F 79% 29.86 in 5.6 mi WSW 5.8 mph - N/A   Mostly Cloudy